Location: Kielce
(50.8833°N, 20.6167°E)
Time: 01:21:10
(UTC+02:00)

A-11 Canister half - All Passes

Search period start: 19 April 2021 00:00
Search period end: 29 April 2021 00:00
Orbit: 1525 x 1683 km, 47.3° (Epoch: 18 April)

Date Brightness Start Highest point End Pass type
(mag) Time Alt. Az. Time Alt. Az. Time Alt. Az.
19 Apr - 00:26:45 10° W 00:31:10 14° WSW 00:35:34 10° SSW visible
19 Apr - 13:46:14 10° SSE 13:50:34 14° ESE 13:54:55 10° E daylight
19 Apr - 15:44:20 10° SSW 15:53:24 41° SE 16:02:35 10° E daylight
19 Apr - 17:47:36 10° WSW 17:57:36 69° SSE 18:07:40 10° E daylight
19 Apr - 19:52:21 10° W 20:02:26 70° SSW 20:12:26 10° ESE visible
19 Apr - 21:57:25 10° W 22:06:43 43° SW 22:15:51 10° SSE visible
20 Apr - 00:04:42 10° W 00:09:37 15° SW 00:14:31 10° SSW visible
20 Apr - 13:25:18 10° SE 13:29:01 13° ESE 13:32:45 10° E daylight
20 Apr - 15:22:48 10° SSW 15:31:47 39° SE 15:40:52 10° E daylight
20 Apr - 17:25:58 10° WSW 17:35:56 68° SSE 17:46:00 10° E daylight
20 Apr - 19:30:41 10° W 19:40:46 70° S 19:50:47 10° ESE daylight
20 Apr - 21:35:44 10° W 21:45:05 44° SW 21:54:18 10° SSE visible
20 Apr - 23:42:42 10° W 23:48:04 16° SW 23:53:23 10° SSW visible
21 Apr - 13:04:31 10° SE 13:07:28 12° ESE 13:10:26 10° ESE daylight
21 Apr - 15:01:18 10° SSW 15:10:09 38° SE 15:19:09 10° E daylight
21 Apr - 17:04:19 10° WSW 17:14:15 67° SSE 17:24:18 10° E daylight
21 Apr - 19:09:00 10° W 19:19:05 71° S 19:29:08 10° ESE daylight
21 Apr - 21:14:01 10° W 21:23:27 45° SSW 21:32:46 10° SE visible
21 Apr - 23:20:45 10° W 23:26:30 17° SW 23:32:13 10° SSW visible
22 Apr - 12:44:05 10° SE 12:45:56 11° ESE 12:47:47 10° ESE daylight
22 Apr - 14:39:48 10° SSW 14:48:32 36° SE 14:57:25 10° E daylight
22 Apr - 16:42:40 10° WSW 16:52:35 66° SSE 17:02:37 10° E daylight
22 Apr - 18:47:19 10° W 18:57:23 72° S 19:07:28 10° ESE daylight
22 Apr - 20:52:19 10° W 21:01:49 47° SSW 21:11:12 10° SE visible
22 Apr - 22:58:50 10° W 23:04:56 18° SW 23:11:00 10° SSW visible
23 Apr - 14:18:19 10° SSW 14:26:55 35° SE 14:35:42 10° E daylight
23 Apr - 16:21:03 10° WSW 16:30:55 65° SSE 16:40:56 10° E daylight
23 Apr - 18:25:39 10° W 18:35:43 72° S 18:45:48 10° ESE daylight
23 Apr - 20:30:37 10° W 20:40:10 48° SSW 20:49:38 10° SE visible
23 Apr - 22:36:57 10° W 22:43:23 19° SW 22:49:45 10° SSW visible
24 Apr - 13:56:50 10° SSW 14:05:19 34° SE 14:13:58 10° E daylight
24 Apr - 15:59:25 10° WSW 16:09:15 64° SSE 16:19:14 10° E daylight
24 Apr - 18:03:58 10° W 18:14:02 73° S 18:24:08 10° ESE daylight
24 Apr - 20:08:55 10° W 20:18:32 50° SSW 20:28:04 10° SE visible
24 Apr - 22:15:06 10° W 22:21:48 20° SW 22:28:28 10° S visible
25 Apr - 13:35:22 10° SSW 13:43:43 32° SE 13:52:13 10° E daylight
25 Apr - 15:37:47 10° WSW 15:47:34 63° SSE 15:57:33 10° E daylight
25 Apr - 17:42:17 10° W 17:52:21 73° S 18:02:28 10° ESE daylight
25 Apr - 19:47:14 10° W 19:56:53 51° SSW 20:06:28 10° SE daylight
25 Apr - 21:53:15 10° W 22:00:14 21° SW 22:07:10 10° S visible
26 Apr - 13:13:56 10° SSW 13:22:07 31° SE 13:30:28 10° E daylight
26 Apr - 15:16:11 10° WSW 15:25:55 62° SSE 15:35:52 10° E daylight
26 Apr - 17:20:38 10° W 17:30:40 73° S 17:40:47 10° ESE daylight
26 Apr - 19:25:33 10° W 19:35:14 53° SSW 19:44:53 10° SE daylight
26 Apr - 21:31:26 10° W 21:38:39 23° SW 21:45:49 10° S visible
27 Apr - 12:52:30 10° SSW 13:00:32 30° SE 13:08:44 10° E daylight
27 Apr - 14:54:34 10° SW 15:04:15 60° SSE 15:14:10 10° E daylight
27 Apr - 16:58:57 10° W 17:08:59 73° S 17:19:06 10° E daylight
27 Apr - 19:03:51 10° W 19:13:35 54° SSW 19:23:17 10° SE daylight
27 Apr - 21:09:38 10° W 21:17:03 24° SW 21:24:28 10° S visible
28 Apr - 12:31:05 10° S 12:38:56 28° SE 12:46:58 10° E daylight
28 Apr - 14:32:58 10° SW 14:42:36 59° SSE 14:52:28 10° E daylight
28 Apr - 16:37:17 10° W 16:47:18 74° S 16:57:26 10° E daylight
28 Apr - 18:42:10 10° W 18:51:56 55° SSW 19:01:41 10° SE daylight
28 Apr - 20:47:51 10° W 20:55:29 25° SW 21:03:05 10° S visible
